Location: Fasanenhof
(48.7107°N, 9.1590°E)
Time: 11:36:21
(UTC+00:00)

Daily predictions for brighter satellites

Satellite Brightness Start Highest point End
(mag) Time Altitude Azimuth Time Altitude Azimuth Time Altitude Azimuth
Meteor 1-27 Rocket 4.4 15:55:44 10° SSW 16:01:36 62° WNW 16:07:30 10° N
Timation 1 Rocket 4.4 15:57:12 10° NNW 16:03:06 57° NE 16:08:58 10° SE
Okean 1 Rocket 3.9 16:01:20 10° N 16:05:14 30° ENE 16:09:05 10° SE
BREEZE-M DEB (TANK) 4.4 16:03:40 10° WNW 16:08:15 84° SSW 16:30:14 10° ESE
Cosmos 1727 Rocket 4.0 16:07:58 10° N 16:14:12 62° ENE 16:20:18 10° SSE
SL-16 R/B 2.2 16:09:59 10° SSW 16:15:39 87° ESE 16:21:23 10° NNE
Meteor 1-18 Rocket 4.3 16:12:53 10° S 16:18:17 55° E 16:23:43 10° NNE
Cosmos 1812 3.9 16:15:53 10° SSW 16:19:34 45° WNW 16:23:17 10° N
Cosmos 1300 Rocket 3.5 16:16:44 10° N 16:21:11 80° E 16:25:34 10° SSE
Cosmos 1339 Rocket 4.4 16:15:19 10° N 16:21:27 85° E 16:27:31 10° S
FENGYUN 3A 3.7 16:16:32 10° SSE 16:21:48 58° ENE 16:27:05 10° N
ERBS 2.4 16:21:16 10° WSW 16:24:36 70° NNW 16:27:32 13° NE
CORIOLIS 4.3 16:19:41 10° SE 16:24:57 53° ENE 16:30:14 10° N
Cosmos 968 Rocket 3.8 16:22:57 10° S 16:28:01 50° ESE 16:33:05 10° NNE
Cosmos 1486 Rocket 4.4 16:23:07 10° SSW 16:28:25 69° WNW 16:33:46 10° NNE
EO 1 Delta rocket 4.0 16:23:44 10° N 16:28:28 88° E 16:33:55 10° S
SJ-7 4.5 16:24:37 10° SSE 16:28:47 89° ENE 16:33:03 10° NNW
METEOR-M 4.1 16:24:04 10° SSE 16:29:25 85° ENE 16:34:48 10° NNW
Ariane Rocket 3.9 16:25:38 10° ESE 16:29:44 25° ENE 16:33:49 10° N
SAR-Lupe-2 3.7 16:27:01 10° NNE 16:30:33 52° E 16:34:04 10° S
Cosmos 1844 Rocket 2.7 16:28:33 10° NNW 16:34:11 58° ENE 16:39:46 10° SE
USA 215 3.8 16:32:35 12° ENE 16:38:11 43° N 16:44:17 10° WNW
Cosmos 967 Rocket 4.5 16:32:27 10° NNW 16:38:43 62° NE 16:44:55 10° SE
Meteor 1-12 Rocket 4.2 16:35:06 10° N 16:40:46 66° ENE 16:46:22 10° SSE
Cosmos 1674 Rocket 3.5 16:36:49 10° S 16:41:14 75° E 16:45:42 10° NNE
Cosmos 2219 Rocket 3.4 16:39:03 10° SSE 16:43:16 22° E 16:45:49 16° ENE
Cosmos 2263 Rocket 4.2 16:38:58 10° NW 16:43:57 32° WSW 16:48:53 10° SSW
Cosmos 773 Rocket 4.2 16:39:02 10° NNW 16:44:11 47° ENE 16:49:18 10° SE
Cosmos 1975 2.9 16:40:35 10° N 16:44:40 86° W 16:48:42 10° S
Meteor 1-19 Rocket 4.3 16:42:13 10° S 16:47:35 56° E 16:53:04 10° NNE
Cosmos 1666 3.6 16:44:23 10° NNW 16:48:11 53° W 16:51:57 10° S
Okean 3 3.7 16:46:48 10° SSW 16:51:06 73° W 16:55:25 10° N
SeaSat 1 2.9 16:47:49 10° SSE 16:52:43 67° WSW 16:57:40 10° NNW
Meteor 2-17 Rocket 4.4 16:48:40 10° S 16:54:45 66° E 17:00:51 10° NNE
SMAP 3.3 16:50:48 10° S 16:55:26 75° WSW 17:00:08 10° NNW
NOSS 2 (A) 3.7 16:54:18 10° NW 16:56:42 76° NE 16:58:01 22° SE
NOAA 12 4.1 16:55:27 10° SE 17:00:35 56° ENE 17:05:44 10° N
Cosmos 2322 Rocket 3.0 16:57:20 10° SW 17:02:51 50° NW 17:08:23 10° NNE
NOSS 2-1 (C) 4.4 16:59:20 10° NW 17:04:46 72° NE 17:12:19 10° SE
Lacrosse 5 2.4 17:00:10 10° NW 17:05:00 42° NNE 17:07:27 25° ENE
COSMOS 2428 3.2 17:00:16 10° S 17:05:31 38° ESE 17:08:32 22° NE
Meteor 1-13 Rocket 4.3 17:01:08 10° S 17:06:28 54° E 17:11:53 10° NNE
NOSS 2-1 (D) 4.4 17:01:17 10° NW 17:06:44 75° NE 17:14:19 10° SE
Okean 1 4.3 17:02:51 10° SSW 17:06:47 49° WNW 17:10:45 10° N
Cosmos 1743 4.1 17:07:31 10° NNW 17:11:09 41° W 17:14:45 10° SSW
CSL-04 Rocket 3.6 17:06:17 10° SSE 17:11:37 82° ENE 17:17:06 10° NNW
Cosmos 2278 Rocket 2.6 17:08:06 10° NNW 17:13:27 40° NE 17:16:58 20° ESE
Cosmos 1455 Rocket 3.5 17:09:31 10° N 17:13:35 37° ENE 17:17:37 10° SE
Meteor 2-4 Rocket 3.6 17:08:17 10° S 17:13:49 63° E 17:19:13 10° NNE
Cosmos 2360 Rocket 2.3 17:09:07 10° SSW 17:14:45 78° WNW 17:19:34 15° NNE
Cosmos 1538 Rocket 4.0 17:10:24 10° NNW 17:15:50 78° ENE 17:21:11 10° SSE
Cosmos 923 Rocket 4.4 17:12:15 10° NNW 17:17:12 40° ENE 17:20:33 19° ESE
Cosmos 1821 Rocket 4.0 17:12:53 10° S 17:19:15 75° E 17:25:39 10° NNE
COSMO-SKYMED 1 2.7 17:17:02 25° NE 17:19:18 50° E 17:23:31 10° S
Cosmos 909 Rocket 4.4 17:13:29 10° S 17:19:30 49° ESE 17:23:21 25° NE
Cosmos 1980 Rocket 4.3 17:15:55 10° WNW 17:19:36 18° NW 17:23:18 10° N
BREEZE-M DEB (TANK) 3.4 17:16:16 10° W 17:19:51 85° N 17:27:06 21° E
Lacrosse 5 rocket 1.6 17:17:15 10° SW 17:21:56 84° NW 17:23:56 34° NE
Cosmos 2333 4.2 17:17:19 10° SSW 17:22:52 62° ESE 17:26:02 26° NE
Cosmos 1975 Rocket 2.9 17:22:44 10° S 17:27:04 65° E 17:29:28 25° NNE
H-2A R/B 2.7 17:23:37 10° SSE 17:27:32 85° ENE 17:31:29 10° NNW
YAOGAN 1 2.4 17:23:40 10° SSE 17:27:59 79° ENE 17:32:20 10° NNW
Geosat 4.1 17:24:43 19° NNE 17:28:26 77° WNW 17:33:28 10° SW
DNEPR-1 R/B 4.4 17:23:10 10° SSW 17:28:29 59° ESE 17:31:35 30° NE
Cosmos 1535 Rocket 4.4 17:23:02 10° S 17:29:08 67° E 17:35:24 10° NNE
ALOS 4.0 17:25:54 10° SSW 17:30:09 35° W 17:34:26 10° NNW
CSL-04 Debris 4.3 17:25:04 10° S 17:30:28 76° WSW 17:35:53 10° NNW
Cosmos 2333 Rocket 2.5 17:25:35 10° S 17:30:57 45° ESE 17:32:38 35° ENE
Envisat 3.2 17:26:10 10° SE 17:30:58 45° ENE 17:35:48 10° N
Cosmos 1680 Rocket 3.8 17:27:30 10° NNW 17:32:34 42° ENE 17:33:36 38° E
FengYun 1-2 T 4.1 17:30:47 10° SSE 17:36:16 65° ENE 17:41:50 10° N
CZ-4 R/B 1.9 17:32:18 10° S 17:36:28 62° WSW 17:40:39 10° NNW
Meteor 1-15 Rocket 4.2 17:34:21 10° N 17:40:14 70° ENE 17:46:08 10° SSE
Meteor 1-23 Rocket 4.3 17:34:56 10° S 17:40:35 57° E 17:43:41 27° NNE
Shenzhou-11 Module 3.8 17:38:15 10° SW 17:40:19 24° S 17:40:19 24° S
Cosmos 1844 4.2 17:35:46 10° NW 17:41:22 60° WSW 17:47:00 10° S
Cosmos 2237 Rocket 3.3 17:36:54 10° SSE 17:40:16 26° SE 17:40:16 26° SE
CZ-4C R/B 3.0 17:37:04 10° NW 17:43:42 50° NE 17:46:21 36° E
Cosmos 2123 Rocket 4.0 17:41:09 10° N 17:47:31 88° W 17:53:51 10° S
Cosmos 2322 4.2 17:50:50 10° SW 17:56:25 57° WNW 17:59:45 24° NNE
SL-16 R/B 4.2 17:56:10 10° W 18:00:33 22° NW 18:04:34 11° N
Cosmos 1515 4.4 17:56:54 10° SSW 18:00:38 51° WNW 18:01:37 40° NNW
ERBS 4.4 17:58:48 10° WNW 18:00:39 20° NW 18:00:39 20° NW
ATLAS 3B R/B 3.6 17:59:58 10° S 18:04:40 30° SE 18:04:40 30° SE
SKYMED 2 4.2 18:05:40 32° N 18:07:26 55° WNW 18:11:40 10° SSW
Ariane Rocket 3.7 18:03:28 10° S 18:08:23 52° W 18:13:21 10° NNW
Cosmos 1777 Rocket 4.1 18:03:56 10° SSW 18:09:08 72° WNW 18:10:40 46° N
Gbstr 26 Del rocket 4.0 18:02:26 10° WSW 18:10:00 76° SSE 18:11:20 59° E
Cosmos 1544 Rocket 3.9 18:06:12 10° NNW 18:10:33 64° W 18:14:54 10° S
Cosmos 1934 Rocket 4.2 18:04:47 10° SSW 18:10:57 69° WNW 18:17:04 10° N
Cosmos 1943 Rocket 4.4 18:16:31 10° N 18:16:55 11° N 18:16:55 11° N
Cosmos 1980 4.2 18:14:49 10° S 18:18:55 45° SSE 18:18:55 45° SSE
USA 215 3.4 18:19:56 52° NE 18:20:34 54° NNE 18:26:53 10° WNW
USA 238 DEB 3.6 18:16:35 10° SSW 18:23:14 62° SE 18:23:15 62° ESE
USA 238 3.6 18:16:41 10° SSW 18:23:20 62° SE 18:23:20 62° SE
Cosmos 1447 Rocket 4.4 18:20:29 10° N 18:26:41 85° W 18:32:49 10° S
Cosmos 2219 Rocket 2.4 18:21:03 10° SW 18:26:42 68° WNW 18:27:35 58° N
MOS 1 4.4 18:21:17 10° S 18:26:58 72° WSW 18:32:42 10° NNW
NOSS 3-2 (A) 4.4 18:21:59 10° S 18:25:19 32° SSE 18:25:19 32° SSE
Cosmos 1605 Rocket 4.2 18:26:22 10° SSW 18:32:32 70° WNW 18:36:57 21° N
Meteor 2-12 Rocket 4.3 18:27:55 10° S 18:34:01 86° W 18:34:23 79° NNW
NOSS 0 Rocket 4.0 18:34:18 10° SSW 18:39:42 71° SSW 18:39:42 71° SSW
Cosmos 2369 Rocket 4.5 18:42:58 10° N 18:43:43 13° N 18:43:43 13° N
Lacrosse 5 2.9 18:43:13 10° WNW 18:46:41 43° WNW 18:46:41 43° WNW
COSMOS 2428 3.7 18:44:19 10° WSW 18:49:44 42° NW 18:50:34 40° NNW
NOSS 3-3 (A) 4.5 18:46:22 10° NW 18:53:48 78° SW 18:54:49 68° S
NOSS 3-3 (C) 4.5 18:46:28 10° NW 18:53:54 79° SW 18:54:51 69° S
Cosmos 2278 Rocket 3.3 18:52:16 10° NW 18:57:34 41° WSW 18:58:56 35° SW
Cosmos 2360 Rocket 4.3 18:55:46 10° W 18:59:43 19° NW 19:01:21 17° NNW
Lacrosse 5 rocket 3.8 18:57:26 10° W 18:59:37 23° WNW 18:59:37 23° WNW
Cosmos 2333 Rocket 3.6 19:10:09 10° WSW 19:14:41 35° WNW 19:14:41 35° WNW
Cosmos 2237 Rocket 4.0 19:19:52 10° SW 19:22:09 24° WSW 19:22:09 24° WSW
CZ-4C R/B 3.5 19:25:35 10° NW 19:31:35 53° W 19:31:35 53° W
ATLAS 3B R/B 4.4 19:49:25 10° SW 19:51:58 24° WSW 19:51:58 24° WSW
